Time,TemperatureF,DewpointF,PressureIn,WindDirection,WindDirectionDegrees,WindSpeedMPH,WindSpeedGustMPH,Humidity,HourlyPrecipIn,Conditions,Clouds,dailyrainin,SoftwareType,DateUTC
2013-06-19 00:09:00,63.0,56.0,29.95,ENE,69,1.0,-999.0,77,-99.99,,,0.00,weatherlink.com 1.10,2013-06-19 04:09:00,
2013-06-19 00:24:00,62.7,56.0,29.95,NE,53,0.0,-999.0,78,-99.99,,,0.00,weatherlink.com 1.10,2013-06-19 04:24:00,
2013-06-19 00:39:00,62.2,55.0,29.96,NE,55,0.0,-999.0,78,-99.99,,,0.00,weatherlink.com 1.10,2013-06-19 04:39:00,
2013-06-19 00:54:00,61.9,55.0,29.96,ENE,64,0.0,-999.0,79,-99.99,,,0.00,weatherlink.com 1.10,2013-06-19 04:54:00,
2013-06-19 01:09:00,61.5,55.0,29.96,ENE,73,0.0,-999.0,78,-99.99,,,0.00,weatherlink.com 1.10,2013-06-19 05:09:00,
2013-06-19 01:24:00,61.1,55.0,29.96,ENE,63,0.0,-999.0,79,-99.99,,,0.00,weatherlink.com 1.10,2013-06-19 05:24:00,
2013-06-19 01:39:00,60.7,54.0,29.96,NE,51,5.0,-999.0,78,-99.99,,,0.00,weatherlink.com 1.10,2013-06-19 05:39:00,
2013-06-19 01:54:00,60.4,54.0,29.96,ENE,67,0.0,-999.0,78,-99.99,,,0.00,weatherlink.com 1.10,2013-06-19 05:54:00,
2013-06-19 02:09:00,60.1,53.0,29.96,ENE,64,0.0,-999.0,78,-99.99,,,0.00,weatherlink.com 1.10,2013-06-19 06:09:00,
2013-06-19 02:24:00,59.6,52.0,29.96,East,82,0.0,-999.0,77,-99.99,,,0.00,weatherlink.com 1.10,2013-06-19 06:24:00,
2013-06-19 02:39:00,59.2,52.0,29.96,ENE,71,0.0,-999.0,77,-99.99,,,0.00,weatherlink.com 1.10,2013-06-19 06:39:00,
2013-06-19 02:54:00,58.9,52.0,29.96,NE,55,0.0,-999.0,77,-99.99,,,0.00,weatherlink.com 1.10,2013-06-19 06:54:00,
2013-06-19 03:09:00,58.7,51.0,29.96,NE,50,3.0,-999.0,76,-99.99,,,0.00,weatherlink.com 1.10,2013-06-19 07:09:00,
2013-06-19 03:24:00,58.3,51.0,29.96,ENE,66,1.0,-999.0,76,-99.99,,,0.00,weatherlink.com 1.10,2013-06-19 07:24:00,
2013-06-19 03:39:00,57.8,50.0,29.97,ENE,69,0.0,-999.0,76,-99.99,,,0.00,weatherlink.com 1.10,2013-06-19 07:39:00,
2013-06-19 03:54:00,57.5,50.0,29.98,ENE,59,3.0,-999.0,76,-99.99,,,0.00,weatherlink.com 1.10,2013-06-19 07:54:00,
2013-06-19 04:09:00,57.0,50.0,29.98,East,80,0.0,-999.0,76,-99.99,,,0.00,weatherlink.com 1.10,2013-06-19 08:09:00,
2013-06-19 04:24:00,56.7,49.0,29.98,ENE,76,0.0,-999.0,76,-99.99,,,0.00,weatherlink.com 1.10,2013-06-19 08:24:00,
2013-06-19 04:39:00,56.4,49.0,29.98,ENE,76,0.0,-999.0,76,-99.99,,,0.00,weatherlink.com 1.10,2013-06-19 08:39:00,
2013-06-19 04:54:00,56.1,49.0,29.98,ENE,76,0.0,-999.0,76,-99.99,,,0.00,weatherlink.com 1.10,2013-06-19 08:54:00,
2013-06-19 05:09:00,55.8,48.0,29.98,ENE,76,0.0,-999.0,76,-99.99,,,0.00,weatherlink.com 1.10,2013-06-19 09:09:00,
2013-06-19 05:24:00,55.5,48.0,29.98,ENE,76,0.0,-999.0,76,-99.99,,,0.00,weatherlink.com 1.10,2013-06-19 09:24:00,
2013-06-19 05:39:00,55.3,48.0,29.98,ENE,76,0.0,-999.0,76,-99.99,,,0.00,weatherlink.com 1.10,2013-06-19 09:39:00,
2013-06-19 05:54:00,55.0,48.0,30.00,ENE,67,0.0,-999.0,77,-99.99,,,0.00,weatherlink.com 1.10,2013-06-19 09:54:00,
2013-06-19 06:09:00,54.8,48.0,30.00,ENE,67,0.0,-999.0,77,-99.99,,,0.00,weatherlink.com 1.10,2013-06-19 10:09:00,
2013-06-19 06:24:00,54.6,48.0,30.01,ENE,67,0.0,-999.0,77,-99.99,,,0.00,weatherlink.com 1.10,2013-06-19 10:24:00,
2013-06-19 06:39:00,54.6,48.0,30.01,ENE,66,0.0,-999.0,77,-99.99,,,0.00,weatherlink.com 1.10,2013-06-19 10:39:00,
2013-06-19 06:54:00,54.7,48.0,30.01,NE,51,0.0,-999.0,78,-99.99,,,0.00,weatherlink.com 1.10,2013-06-19 10:54:00,
2013-06-19 07:09:00,55.2,48.0,30.02,NE,46,0.0,-999.0,78,-99.99,,,0.00,weatherlink.com 1.10,2013-06-19 11:09:00,
2013-06-19 07:24:00,56.2,49.0,30.03,NE,38,0.0,-999.0,77,-99.99,,,0.00,weatherlink.com 1.10,2013-06-19 11:24:00,
2013-06-19 07:39:00,57.2,50.0,30.03,NE,53,0.0,-999.0,77,-99.99,,,0.00,weatherlink.com 1.10,2013-06-19 11:39:00,
2013-06-19 07:54:00,57.8,50.0,30.03,NE,49,0.0,-999.0,76,-99.99,,,0.00,weatherlink.com 1.10,2013-06-19 11:54:00,
2013-06-19 08:09:00,58.4,51.0,30.04,ENE,71,0.0,-999.0,75,-99.99,,,0.00,weatherlink.com 1.10,2013-06-19 12:09:00,
2013-06-19 08:24:00,59.6,52.0,30.04,ENE,63,3.0,-999.0,75,-99.99,,,0.00,weatherlink.com 1.10,2013-06-19 12:24:00,
2013-06-19 08:39:00,60.6,52.0,30.04,ENE,62,0.0,-999.0,74,-99.99,,,0.00,weatherlink.com 1.10,2013-06-19 12:39:00,
2013-06-19 08:54:00,61.4,53.0,30.05,East,80,0.0,-999.0,74,-99.99,,,0.00,weatherlink.com 1.10,2013-06-19 12:54:00,
2013-06-19 09:09:00,62.6,54.0,30.05,ENE,64,0.0,-999.0,73,-99.99,,,0.00,weatherlink.com 1.10,2013-06-19 13:09:00,
2013-06-19 09:24:00,62.9,54.0,30.05,ENE,65,6.0,-999.0,73,-99.99,,,0.00,weatherlink.com 1.10,2013-06-19 13:24:00,
2013-06-19 09:39:00,64.2,55.0,30.05,ENE,64,3.0,-999.0,73,-99.99,,,0.00,weatherlink.com 1.10,2013-06-19 13:39:00,
2013-06-19 09:54:00,65.0,56.0,30.06,ENE,63,0.0,-999.0,72,-99.99,,,0.00,weatherlink.com 1.10,2013-06-19 13:54:00,
2013-06-19 10:09:00,66.0,56.0,30.06,East,99,4.0,-999.0,71,-99.99,,,0.00,weatherlink.com 1.10,2013-06-19 14:09:00,
2013-06-19 10:24:00,66.7,57.0,30.05,ENE,59,1.0,-999.0,70,-99.99,,,0.00,weatherlink.com 1.10,2013-06-19 14:24:00,
2013-06-19 10:39:00,67.9,57.0,30.05,ESE,123,5.0,-999.0,69,-99.99,,,0.00,weatherlink.com 1.10,2013-06-19 14:39:00,
2013-06-19 10:54:00,68.7,58.0,30.05,ENE,57,5.0,-999.0,68,-99.99,,,0.00,weatherlink.com 1.10,2013-06-19 14:54:00,
2013-06-19 11:09:00,69.8,58.0,30.05,ENE,67,5.0,-999.0,67,-99.99,,,0.00,weatherlink.com 1.10,2013-06-19 15:09:00,
2013-06-19 11:24:00,70.6,59.0,30.05,NE,46,2.0,-999.0,66,-99.99,,,0.00,weatherlink.com 1.10,2013-06-19 15:24:00,
2013-06-19 11:39:00,71.0,58.0,30.05,ENE,64,3.0,-999.0,64,-99.99,,,0.00,weatherlink.com 1.10,2013-06-19 15:39:00,
2013-06-19 11:54:00,70.7,57.0,30.05,North,5,0.0,-999.0,63,-99.99,,,0.00,weatherlink.com 1.10,2013-06-19 15:54:00,
2013-06-19 12:09:00,71.5,58.0,30.05,ENE,57,1.0,-999.0,63,-99.99,,,0.00,weatherlink.com 1.10,2013-06-19 16:09:00,
2013-06-19 12:24:00,72.3,58.0,30.05,SSE,161,0.0,-999.0,62,-99.99,,,0.00,weatherlink.com 1.10,2013-06-19 16:24:00,
2013-06-19 12:39:00,72.9,59.0,30.05,ENE,78,0.0,-999.0,61,-99.99,,,0.00,weatherlink.com 1.10,2013-06-19 16:39:00,
2013-06-19 12:54:00,73.2,58.0,30.05,NE,47,3.0,-999.0,59,-99.99,,,0.00,weatherlink.com 1.10,2013-06-19 16:54:00,
2013-06-19 13:09:00,73.9,59.0,30.05,ESE,108,0.0,-999.0,59,-99.99,,,0.00,weatherlink.com 1.10,2013-06-19 17:09:00,
2013-06-19 13:24:00,74.6,58.0,30.04,NNE,12,0.0,-999.0,57,-99.99,,,0.00,weatherlink.com 1.10,2013-06-19 17:24:00,
2013-06-19 13:39:00,74.6,58.0,30.04,ENE,78,1.0,-999.0,56,-99.99,,,0.00,weatherlink.com 1.10,2013-06-19 17:39:00,
2013-06-19 13:54:00,75.0,58.0,30.04,ENE,78,4.0,-999.0,56,-99.99,,,0.00,weatherlink.com 1.10,2013-06-19 17:54:00,
2013-06-19 14:09:00,75.5,58.0,30.03,ESE,123,1.0,-999.0,55,-99.99,,,0.00,weatherlink.com 1.10,2013-06-19 18:09:00,
2013-06-19 14:24:00,75.4,57.0,30.03,ESE,108,0.0,-999.0,54,-99.99,,,0.00,weatherlink.com 1.10,2013-06-19 18:24:00,
2013-06-19 14:39:00,75.7,57.0,30.03,ENE,74,1.0,-999.0,53,-99.99,,,0.00,weatherlink.com 1.10,2013-06-19 18:39:00,
2013-06-19 14:54:00,76.5,57.0,30.02,East,84,3.0,-999.0,52,-99.99,,,0.00,weatherlink.com 1.10,2013-06-19 18:54:00,
2013-06-19 15:09:00,76.0,57.0,30.02,NE,37,2.0,-999.0,52,-99.99,,,0.00,weatherlink.com 1.10,2013-06-19 19:09:00,
2013-06-19 15:24:00,77.2,58.0,30.02,SE,127,2.0,-999.0,51,-99.99,,,0.00,weatherlink.com 1.10,2013-06-19 19:24:00,
2013-06-19 15:39:00,77.0,57.0,30.02,North,355,2.0,-999.0,51,-99.99,,,0.00,weatherlink.com 1.10,2013-06-19 19:39:00,
2013-06-19 15:54:00,76.9,57.0,30.01,ENE,77,1.0,-999.0,50,-99.99,,,0.00,weatherlink.com 1.10,2013-06-19 19:54:00,
2013-06-19 16:09:00,77.3,57.0,30.01,NE,51,0.0,-999.0,49,-99.99,,,0.00,weatherlink.com 1.10,2013-06-19 20:09:00,
2013-06-19 16:24:00,77.0,56.0,30.01,East,94,2.0,-999.0,48,-99.99,,,0.00,weatherlink.com 1.10,2013-06-19 20:24:00,
2013-06-19 16:39:00,77.5,56.0,30.01,NE,36,0.0,-999.0,47,-99.99,,,0.00,weatherlink.com 1.10,2013-06-19 20:39:00,
2013-06-19 16:54:00,77.8,56.0,30.00,ENE,64,1.0,-999.0,47,-99.99,,,0.00,weatherlink.com 1.10,2013-06-19 20:54:00,
2013-06-19 17:09:00,77.4,55.0,30.00,South,180,0.0,-999.0,46,-99.99,,,0.00,weatherlink.com 1.10,2013-06-19 21:09:00,
2013-06-19 17:24:00,78.0,56.0,30.00,ENE,70,0.0,-999.0,46,-99.99,,,0.00,weatherlink.com 1.10,2013-06-19 21:24:00,
2013-06-19 17:39:00,78.2,56.0,30.00,ENE,71,1.0,-999.0,46,-99.99,,,0.00,weatherlink.com 1.10,2013-06-19 21:39:00,
2013-06-19 17:54:00,78.0,56.0,29.99,ENE,75,2.0,-999.0,46,-99.99,,,0.00,weatherlink.com 1.10,2013-06-19 21:54:00,
2013-06-19 18:09:00,78.3,56.0,29.99,ENE,78,0.0,-999.0,46,-99.99,,,0.00,weatherlink.com 1.10,2013-06-19 22:09:00,
2013-06-19 18:24:00,78.4,55.0,29.98,ENE,74,0.0,-999.0,45,-99.99,,,0.00,weatherlink.com 1.10,2013-06-19 22:24:00,
2013-06-19 18:39:00,78.4,55.0,29.99,SE,126,0.0,-999.0,44,-99.99,,,0.00,weatherlink.com 1.10,2013-06-19 22:39:00,
2013-06-19 18:54:00,78.4,55.0,29.99,ENE,74,0.0,-999.0,44,-99.99,,,0.00,weatherlink.com 1.10,2013-06-19 22:54:00,
2013-06-19 19:09:00,78.2,54.0,29.98,East,90,0.0,-999.0,44,-99.99,,,0.00,weatherlink.com 1.10,2013-06-19 23:09:00,
2013-06-19 19:24:00,77.8,53.0,29.99,SE,132,1.0,-999.0,43,-99.99,,,0.00,weatherlink.com 1.10,2013-06-19 23:24:00,
2013-06-19 19:39:00,77.3,53.0,29.99,East,96,2.0,-999.0,43,-99.99,,,0.00,weatherlink.com 1.10,2013-06-19 23:39:00,
2013-06-19 19:54:00,77.2,53.0,30.00,ESE,119,0.0,-999.0,43,-99.99,,,0.00,weatherlink.com 1.10,2013-06-19 23:54:00,
2013-06-19 20:09:00,77.0,53.0,29.99,ESE,107,0.0,-999.0,43,-99.99,,,0.00,weatherlink.com 1.10,2013-06-20 00:09:00,
2013-06-19 20:24:00,75.9,52.0,30.00,East,97,0.0,-999.0,43,-99.99,,,0.00,weatherlink.com 1.10,2013-06-20 00:24:00,
2013-06-19 20:39:00,75.1,52.0,30.00,East,88,0.0,-999.0,44,-99.99,,,0.00,weatherlink.com 1.10,2013-06-20 00:39:00,
2013-06-19 20:54:00,74.3,52.0,30.00,East,88,0.0,-999.0,45,-99.99,,,0.00,weatherlink.com 1.10,2013-06-20 00:54:00,
2013-06-19 21:09:00,73.3,51.0,30.01,East,88,0.0,-999.0,46,-99.99,,,0.00,weatherlink.com 1.10,2013-06-20 01:09:00,
2013-06-19 21:39:00,70.6,50.0,30.02,East,88,0.0,-999.0,48,-99.99,,,0.00,weatherlink.com 1.10,2013-06-20 01:39:00,
2013-06-19 21:54:00,69.5,50.0,30.03,East,88,0.0,-999.0,50,-99.99,,,0.00,weatherlink.com 1.10,2013-06-20 01:54:00,
2013-06-19 22:09:00,69.6,51.0,30.03,ENE,61,4.0,-999.0,51,-99.99,,,0.00,weatherlink.com 1.10,2013-06-20 02:09:00,
2013-06-19 22:24:00,68.8,50.0,30.04,ENE,78,2.0,-999.0,52,-99.99,,,0.00,weatherlink.com 1.10,2013-06-20 02:24:00,
2013-06-19 22:39:00,67.7,50.0,30.05,ENE,59,0.0,-999.0,53,-99.99,,,0.00,weatherlink.com 1.10,2013-06-20 02:39:00,
2013-06-19 22:54:00,66.8,50.0,30.05,ENE,64,4.0,-999.0,55,-99.99,,,0.00,weatherlink.com 1.10,2013-06-20 02:54:00,
2013-06-19 23:09:00,66.1,50.0,30.05,ENE,59,1.0,-999.0,57,-99.99,,,0.00,weatherlink.com 1.10,2013-06-20 03:09:00,
2013-06-19 23:24:00,65.5,50.0,30.06,ENE,60,4.0,-999.0,58,-99.99,,,0.00,weatherlink.com 1.10,2013-06-20 03:24:00,
2013-06-19 23:39:00,64.9,50.0,30.06,ENE,68,0.0,-999.0,59,-99.99,,,0.00,weatherlink.com 1.10,2013-06-20 03:39:00,
2013-06-19 23:54:00,64.3,50.0,30.06,ENE,70,0.0,-999.0,60,-99.99,,,0.00,weatherlink.com 1.10,2013-06-20 03:54:00,